Back to catalog

SPIRALE B

AliveMilitaryHEO
NORAD 33752·PAYLOAD·🇫🇷 France

Launched Feb 12, 2009 from Guiana Space Centre

Loading…

Next Passes (next 24 hours)

TLE

FreshSource: Space-Track

Epoch: Sep 14, 2026, 10:00 UTC

1 33752U 09008D   26257.41704481  .00002629  00000-0  77370-3 0  9994
2 33752   2.2408 313.2439 6637023 115.6015 324.6860  3.11899819170960

Track SPIRALE B in real time with AllMySat

Download on the App Store